Location: Saint-Denis
(20.8800°S, 55.4481°E)
Time: 07:56:31
(UTC+04:00)

FENGYUN 1C DEB - Pass Details

Date: 26 February 2024
Orbit: 798 x 864 km, 98.6° (Epoch: 24 April)

Event Time Altitude Azimuth Distance (km) Brightness Sun altitude
Rises 19:34:07 0° 168° (SSE) 3,433 ? -11.3°
Reaches altitude 10° 19:36:31 10° 167° (SSE) 2,482 ? -11.9°
Maximum altitude 19:42:02 89° 78° (ENE) 842 ? -13.1°
Drops below altitude 10° 19:47:24 10° 347° (NNW) 2,412 ? -14.3°
Sets 19:49:42 0° 347° (NNW) 3,328 ? -14.8°
